Home   Weather   Koror   Past weeks
Flag for Palau

Past Weather in Koror, Palau — Yesterday and Last 2 Weeks

Now
77 °F

Partly cloudy.


Feels Like: 78 °F
Forecast: 86 / 78 °F
Wind: No wind

Location: Koror / Palau Island

Current Time: Oct 17, 2019 at 5:28:45 am

Latest Report: Oct 17, 2019 at 3:50 am


Visibility: 15 mi

Pressure: 29.82 "Hg

Humidity: 89%

Dew Point: 73 °F

Location of KororLocation

Past Weather in Koror — Graph

°F

Koror Temperature Yesterday

Maximum temperature yesterday: 88 °F (at 12:50 pm)
Minimum temperature yesterday: 75 °F (at 12:50 am)
Average temperature yesterday: 80 °F

High & Low Weather Summary for the Past Weeks

 TemperatureHumidityPressure
High90 °F (Oct 9, 1:50 pm)100% (Oct 15, 11:51 pm)29.91 "Hg (Oct 15, 11:51 pm)
Low75 °F (Oct 2, 4:50 am)63% (Oct 9, 1:50 pm)29.72 "Hg (Oct 8, 2:50 pm)
Average81 °F83%29.81 "Hg
* Reported Oct 2 3:50 am — Oct 17 3:50 am, Koror. Weather by CustomWeather, © 2019

Note: Actual official high and low records may vary slightly from our data, if they occured in-between our weather recording intervals... More about our weather records

Advertising

Koror Weather History for the Previous 24 Hours

Scroll right to see more
 ConditionsComfort  
Time TempWeatherWind HumidityBarometerVisibility
3:50 am
Thu, Oct 17
77 °FPartly cloudy.No wind89%29.82 "Hg15 mi
2:50 am79 °FPartly cloudy.No wind89%29.84 "Hg15 mi
1:50 am77 °FPassing clouds.No wind89%29.87 "Hg15 mi
12:50 am77 °FPassing clouds.No wind89%29.85 "Hg14 mi
11:54 pm
Wed, Oct 16
75 °FPartly cloudy.No wind94%29.85 "Hg14 mi
10:52 pm75 °FPartly cloudy.No wind94%29.85 "Hg14 mi
9:55 pm77 °FPartly cloudy.No wind94%29.86 "Hg14 mi
8:53 pm77 °FPartly cloudy.No wind94%29.84 "Hg14 mi
7:50 pm79 °FPartly cloudy.No wind89%29.82 "Hg14 mi
6:54 pm81 °FPartly cloudy.No wind84%29.81 "Hg14 mi
5:51 pm81 °FScattered showers. Passing clouds.No wind84%29.79 "Hg12 mi
4:53 pm79 °FScattered showers. Partly sunny.No wind94%29.78 "Hg11 mi
3:50 pm84 °FScattered showers. Partly sunny.8 mph74%29.78 "Hg12 mi
2:50 pm82 °FPartly sunny.6 mph74%29.78 "Hg15 mi
1:50 pm88 °FBroken clouds.9 mph66%29.78 "Hg15 mi
12:50 pm88 °FBroken clouds.8 mph66%29.80 "Hg15 mi
11:50 am86 °FBroken clouds.9 mph75%29.81 "Hg15 mi
10:50 am86 °FBroken clouds.9 mph70%29.84 "Hg15 mi
9:50 am86 °FBroken clouds.7 mph66%29.85 "Hg15 mi
8:50 am84 °FBroken clouds.7 mph74%29.85 "Hg15 mi
6:50 am77 °FBroken clouds.No wind94%29.82 "Hg15 mi
5:50 am75 °FScattered clouds.No wind94%29.81 "Hg15 mi
Weather by CustomWeather, © 2019

See weather overview